| time (UTC) | temp C | wind direction | speed KPH | gust KPH | rain 1hr cm | rain 24hr cm | rain mn cm | humidity % | barometer mb |
| 20260509112503 | 7 | 129 | 1.6 | 6.4 | 0.00 | 0.00 | 0.00 | 79 | 1007.5 |
| 20260509112005 | 7 | 150 | 1.6 | 8.0 | 0.00 | 0.00 | 0.00 | 79 | 1007.6 |
| 20260509111608 | 7 | 167 | 0.0 | 6.4 | 0.00 | 0.00 | 0.00 | 79 | 1007.6 |
| 20260509111102 | 7 | 153 | 0.0 | 9.7 | 0.00 | 0.00 | 0.00 | 79 | 1007.4 |
| 20260509110559 | 7 | 164 | 1.6 | 6.4 | 0.00 | 0.00 | 0.00 | 79 | 1007.3 |
| 20260509110105 | 6 | 155 | 1.6 | 12.9 | 0.00 | 0.00 | 0.00 | 79 | 1007.3 |
| 20260509105557 | 6 | 151 | 4.8 | 12.9 | 0.00 | 0.00 | 0.00 | 79 | 1007.3 |
| 20260509105055 | 6 | 164 | 1.6 | 9.7 | 0.00 | 0.00 | 0.00 | 79 | 1007.4 |
| 20260509104554 | 6 | 137 | 1.6 | 9.7 | 0.00 | 0.00 | 0.00 | 80 | 1007.2 |
| 20260509104052 | 6 | 136 | 1.6 | 6.4 | 0.00 | 0.00 | 0.00 | 80 | 1007.2 |
| 20260509103551 | 6 | 149 | 1.6 | 6.4 | 0.00 | 0.00 | 0.00 | 80 | 1007.1 |
| 20260509103102 | 6 | 145 | 1.6 | 6.4 | 0.00 | 0.00 | 0.00 | 80 | 1007.1 |
| 20260509102550 | 6 | 142 | 1.6 | 4.8 | 0.00 | 0.00 | 0.00 | 80 | 1007.2 |
| 20260509102051 | 6 | 142 | 1.6 | 4.8 | 0.00 | 0.00 | 0.00 | 80 | 1007.1 |
| 20260509101617 | 6 | 144 | 1.6 | 12.9 | 0.00 | 0.00 | 0.00 | 80 | 1007.1 |
| 20260509101048 | 6 | 144 | 1.6 | 12.9 | 0.00 | 0.00 | 0.00 | 79 | 1007.2 |
| 20260509100548 | 5 | 158 | 3.2 | 8.0 | 0.00 | 0.00 | 0.00 | 79 | 1007.2 |
| 20260509100047 | 5 | 163 | 3.2 | 4.8 | 0.00 | 0.00 | 0.00 | 79 | 1007.1 |
| 20260509095546 | 6 | 158 | 3.2 | 11.3 | 0.00 | 0.00 | 0.00 | 78 | 1007.1 |
| 20260509095047 | 6 | 163 | 1.6 | 11.3 | 0.00 | 0.00 | 0.00 | 78 | 1007.1 |
| 20260509094546 | 6 | 146 | 1.6 | 8.0 | 0.00 | 0.00 | 0.00 | 78 | 1007.1 |
| 20260509094045 | 6 | 155 | 1.6 | 8.0 | 0.00 | 0.00 | 0.00 | 77 | 1007.1 |
| 20260509093545 | 6 | 150 | 1.6 | 8.0 | 0.00 | 0.00 | 0.00 | 77 | 1007.1 |
| 20260509093045 | 6 | 142 | 1.6 | 8.0 | 0.00 | 0.00 | 0.00 | 76 | 1007.1 |
| 20260509092544 | 6 | 159 | 3.2 | 4.8 | 0.00 | 0.00 | 0.00 | 76 | 1007.1 |
| 20260509092044 | 6 | 98 | 1.6 | 4.8 | 0.00 | 0.00 | 0.00 | 76 | 1007.2 |
| 20260509091545 | 6 | 98 | 1.6 | 4.8 | 0.00 | 0.00 | 0.00 | 76 | 1007.1 |
| 20260509091044 | 6 | 98 | 0.0 | 4.8 | 0.00 | 0.00 | 0.00 | 76 | 1007.1 |
| 20260509090544 | 6 | 98 | 0.0 | 3.2 | 0.00 | 0.00 | 0.00 | 76 | 1007.2 |
| 20260509090044 | 6 | 98 | 0.0 | 4.8 | 0.00 | 0.00 | 0.00 | 76 | 1007.2 |
| 20260509085542 | 6 | 98 | 1.6 | 4.8 | 0.00 | 0.00 | 0.00 | 76 | 1007.3 |
| 20260509085042 | 6 | 98 | 1.6 | 3.2 | 0.00 | 0.00 | 0.00 | 76 | 1007.3 |
| 20260509084546 | 6 | 98 | 1.6 | 4.8 | 0.00 | 0.00 | 0.00 | 76 | 1007.5 |
| 20260509084043 | 6 | 98 | 1.6 | 4.8 | 0.00 | 0.00 | 0.00 | 76 | 1007.6 |
| 20260509083539 | 6 | 98 | 1.6 | 4.8 | 0.00 | 0.00 | 0.00 | 76 | 1007.7 |
| 20260509083039 | 6 | 98 | 1.6 | 4.8 | 0.00 | 0.00 | 0.00 | 76 | 1007.7 |
| 20260509082538 | 6 | 49 | 0.0 | 3.2 | 0.00 | 0.00 | 0.00 | 76 | 1007.8 |
| 20260509082039 | 6 | 49 | 1.6 | 3.2 | 0.00 | 0.00 | 0.00 | 76 | 1007.7 |
| 20260509081542 | 6 | 49 | 0.0 | 4.8 | 0.00 | 0.00 | 0.00 | 77 | 1007.8 |
| 20260509081037 | 6 | 49 | 1.6 | 4.8 | 0.00 | 0.00 | 0.00 | 77 | 1007.8 |
| 20260509080537 | 5 | 49 | 1.6 | 3.2 | 0.00 | 0.00 | 0.00 | 77 | 1007.8 |
| 20260509080038 | 5 | 49 | 0.0 | 3.2 | 0.00 | 0.00 | 0.00 | 77 | 1007.9 |
| 20260509075537 | 5 | 49 | 0.0 | 3.2 | 0.00 | 0.00 | 0.00 | 77 | 1007.9 |
| 20260509075037 | 6 | 49 | 0.0 | 1.6 | 0.00 | 0.00 | 0.00 | 77 | 1008.0 |
| 20260509074544 | 6 | 49 | 0.0 | 1.6 | 0.00 | 0.00 | 0.00 | 76 | 1008.1 |
| 20260509074035 | 6 | 49 | 0.0 | 0.0 | 0.00 | 0.00 | 0.00 | 76 | 1008.2 |
| 20260509073535 | 6 | 49 | 0.0 | 0.0 | 0.00 | 0.00 | 0.00 | 76 | 1008.2 |
| 20260509073034 | 6 | 49 | 0.0 | 3.2 | 0.00 | 0.00 | 0.00 | 75 | 1008.2 |
| 20260509072534 | 6 | 49 | 0.0 | 3.2 | 0.00 | 0.00 | 0.00 | 76 | 1008.2 |
| 20260509072035 | 6 | 49 | 0.0 | 3.2 | 0.00 | 0.00 | 0.00 | 75 | 1008.2 |
| 20260509071534 | 6 | 49 | 0.0 | 3.2 | 0.00 | 0.00 | 0.00 | 75 | 1008.2 |
| 20260509071033 | 6 | 49 | 0.0 | 3.2 | 0.00 | 0.00 | 0.00 | 75 | 1008.4 |
| 20260509070531 | 6 | 49 | 0.0 | 3.2 | 0.00 | 0.00 | 0.00 | 75 | 1008.4 |
| 20260509070031 | 6 | 49 | 1.6 | 4.8 | 0.00 | 0.00 | 0.00 | 75 | 1008.5 |
| 20260509065530 | 6 | 49 | 1.6 | 4.8 | 0.00 | 0.00 | 0.00 | 76 | 1008.4 |
| 20260509065032 | 6 | 49 | 1.6 | 4.8 | 0.00 | 0.00 | 0.00 | 76 | 1008.4 |
| 20260509064534 | 6 | 49 | 1.6 | 4.8 | 0.00 | 0.00 | 0.00 | 76 | 1008.4 |
| 20260509064032 | 6 | 49 | 1.6 | 4.8 | 0.00 | 0.00 | 0.00 | 76 | 1008.5 |
| 20260509063529 | 6 | 49 | 1.6 | 4.8 | 0.00 | 0.00 | 0.00 | 77 | 1008.5 |
| 20260509063029 | 6 | 49 | 1.6 | 4.8 | 0.00 | 0.00 | 0.00 | 77 | 1008.7 |
| 20260509062529 | 6 | 49 | 1.6 | 4.8 | 0.00 | 0.00 | 0.00 | 77 | 1008.7 |
| 20260509062029 | 6 | 49 | 1.6 | 4.8 | 0.00 | 0.00 | 0.00 | 77 | 1008.7 |
| 20260509061525 | 6 | 49 | 1.6 | 4.8 | 0.00 | 0.00 | 0.00 | 78 | 1008.8 |
| 20260509061032 | 6 | 49 | 1.6 | 4.8 | 0.00 | 0.00 | 0.00 | 77 | 1008.9 |
| 20260509060524 | 6 | 49 | 1.6 | 4.8 | 0.00 | 0.00 | 0.00 | 78 | 1008.9 |
| 20260509060026 | 6 | 49 | 1.6 | 4.8 | 0.00 | 0.00 | 0.00 | 77 | 1009.0 |
| 20260509055525 | 6 | 49 | 1.6 | 4.8 | 0.00 | 0.03 | 0.00 | 77 | 1009.1 |
| 20260509055024 | 6 | 49 | 1.6 | 4.8 | 0.00 | 0.03 | 0.00 | 77 | 1009.1 |
| 20260509054524 | 6 | 49 | 1.6 | 4.8 | 0.00 | 0.03 | 0.00 | 77 | 1009.2 |
| 20260509054022 | 6 | 49 | 1.6 | 4.8 | 0.00 | 0.03 | 0.00 | 77 | 1009.2 |
| 20260509053522 | 6 | 49 | 1.6 | 4.8 | 0.00 | 0.03 | 0.00 | 77 | 1009.2 |
| 20260509053022 | 6 | 49 | 1.6 | 4.8 | 0.00 | 0.03 | 0.00 | 77 | 1009.3 |
| 20260509052520 | 6 | 49 | 1.6 | 4.8 | 0.00 | 0.03 | 0.00 | 77 | 1009.4 |
| 20260509052020 | 6 | 49 | 1.6 | 4.8 | 0.00 | 0.03 | 0.00 | 77 | 1009.5 |
| 20260509051520 | 6 | 49 | 1.6 | 4.8 | 0.00 | 0.03 | 0.00 | 78 | 1009.6 |
| 20260509051018 | 6 | 49 | 1.6 | 4.8 | 0.00 | 0.03 | 0.00 | 78 | 1009.4 |
| 20260509050517 | 5 | 49 | 1.6 | 3.2 | 0.00 | 0.03 | 0.00 | 79 | 1009.6 |
| 20260509050017 | 5 | 49 | 1.6 | 3.2 | 0.00 | 0.03 | 0.00 | 79 | 1009.6 |
| 20260509045521 | 5 | 49 | 1.6 | 3.2 | 0.00 | 0.05 | 0.00 | 79 | 1009.6 |
| 20260509045015 | 5 | 49 | 1.6 | 3.2 | 0.00 | 0.05 | 0.00 | 80 | 1009.6 |
| 20260509044515 | 5 | 49 | 1.6 | 3.2 | 0.00 | 0.05 | 0.00 | 80 | 1009.7 |
| 20260509044020 | 5 | 49 | 0.0 | 3.2 | 0.00 | 0.05 | 0.00 | 80 | 1009.7 |
| 20260509043513 | 5 | 49 | 1.6 | 3.2 | 0.00 | 0.05 | 0.00 | 81 | 1009.8 |
| 20260509043012 | 5 | 49 | 1.6 | 3.2 | 0.00 | 0.05 | 0.00 | 81 | 1009.7 |
| 20260509042514 | 5 | 49 | 0.0 | 3.2 | 0.00 | 0.05 | 0.00 | 82 | 1009.8 |
| 20260509042014 | 5 | 49 | 1.6 | 3.2 | 0.00 | 0.05 | 0.00 | 82 | 1009.8 |
| 20260509041510 | 5 | 49 | 1.6 | 3.2 | 0.00 | 0.05 | 0.00 | 83 | 1009.9 |
| 20260509041009 | 5 | 49 | 0.0 | 3.2 | 0.00 | 0.05 | 0.00 | 83 | 1010.0 |
| 20260509040509 | 5 | 49 | 0.0 | 3.2 | 0.00 | 0.05 | 0.00 | 83 | 1009.9 |
| 20260509040008 | 5 | 49 | 0.0 | 3.2 | 0.00 | 0.05 | 0.00 | 83 | 1010.0 |
| 20260509035507 | 5 | 49 | 1.6 | 3.2 | 0.00 | 0.08 | 0.05 | 83 | 1009.9 |
| 20260509035008 | 5 | 49 | 0.0 | 3.2 | 0.00 | 0.08 | 0.05 | 83 | 1009.9 |
| 20260509034507 | 5 | 49 | 0.0 | 3.2 | 0.00 | 0.08 | 0.05 | 83 | 1009.9 |
| 20260509034007 | 5 | 49 | 0.0 | 0.0 | 0.00 | 0.08 | 0.05 | 83 | 1009.9 |
| 20260509033507 | 5 | 49 | 0.0 | 3.2 | 0.00 | 0.08 | 0.05 | 83 | 1010.0 |
| 20260509033007 | 5 | 49 | 0.0 | 3.2 | 0.00 | 0.08 | 0.05 | 83 | 1009.9 |
| 20260509032506 | 5 | 49 | 0.0 | 3.2 | 0.00 | 0.08 | 0.05 | 82 | 1010.0 |
| 20260509032005 | 5 | 49 | 1.6 | 3.2 | 0.00 | 0.08 | 0.05 | 83 | 1010.1 |
| 20260509031505 | 5 | 49 | 1.6 | 3.2 | 0.00 | 0.08 | 0.05 | 83 | 1010.0 |
| 20260509031007 | 5 | 49 | 1.6 | 3.2 | 0.00 | 0.08 | 0.05 | 83 | 1010.0 |
| 20260509030508 | 5 | 49 | 0.0 | 3.2 | 0.00 | 0.08 | 0.05 | 84 | 1010.1 |
| 20260509030006 | 5 | 49 | 1.6 | 3.2 | 0.00 | 0.08 | 0.05 | 84 | 1010.1 |
| 20260509025506 | 5 | 49 | 0.0 | 3.2 | 0.00 | 0.08 | 0.05 | 83 | 1010.1 |
| 20260509025006 | 5 | 49 | 1.6 | 3.2 | 0.00 | 0.08 | 0.05 | 83 | 1010.2 |
| 20260509024507 | 5 | 49 | 0.0 | 3.2 | 0.00 | 0.08 | 0.05 | 83 | 1010.1 |
| 20260509024005 | 5 | 49 | 1.6 | 3.2 | 0.00 | 0.08 | 0.05 | 83 | 1010.1 |
| 20260509023505 | 5 | 49 | 1.6 | 3.2 | 0.00 | 0.08 | 0.05 | 83 | 1010.1 |
| 20260509023004 | 5 | 49 | 0.0 | 3.2 | 0.00 | 0.08 | 0.05 | 83 | 1010.1 |
| 20260509022504 | 5 | 49 | 0.0 | 3.2 | 0.00 | 0.08 | 0.05 | 83 | 1010.2 |
| 20260509022005 | 5 | 49 | 0.0 | 3.2 | 0.00 | 0.08 | 0.05 | 83 | 1010.2 |
| 20260509021504 | 5 | 49 | 1.6 | 3.2 | 0.00 | 0.08 | 0.05 | 83 | 1010.1 |
| 20260509021004 | 5 | 49 | 0.0 | 3.2 | 0.00 | 0.08 | 0.05 | 83 | 1010.1 |
| 20260509020505 | 5 | 49 | 1.6 | 3.2 | 0.00 | 0.08 | 0.05 | 82 | 1010.2 |
| 20260509020007 | 5 | 49 | 1.6 | 3.2 | 0.00 | 0.08 | 0.05 | 82 | 1010.3 |
| 20260509015503 | 6 | 49 | 1.6 | 3.2 | 0.00 | 0.08 | 0.05 | 81 | 1010.2 |
| 20260509015002 | 6 | 49 | 1.6 | 3.2 | 0.00 | 0.08 | 0.05 | 81 | 1010.2 |
| 20260509014506 | 6 | 49 | 1.6 | 3.2 | 0.00 | 0.08 | 0.05 | 79 | 1010.2 |
| 20260509014003 | 6 | 49 | 0.0 | 3.2 | 0.00 | 0.08 | 0.05 | 79 | 1010.3 |
| 20260509013503 | 6 | 49 | 1.6 | 3.2 | 0.00 | 0.08 | 0.05 | 78 | 1010.3 |
| 20260509013008 | 6 | 49 | 1.6 | 3.2 | 0.00 | 0.08 | 0.05 | 78 | 1010.2 |
| 20260509012502 | 6 | 49 | 0.0 | 0.0 | 0.00 | 0.08 | 0.05 | 78 | 1010.1 |
| 20260509012003 | 6 | 49 | 0.0 | 0.0 | 0.00 | 0.08 | 0.05 | 78 | 1010.2 |
| 20260509011502 | 7 | 49 | 0.0 | 0.0 | 0.00 | 0.08 | 0.05 | 77 | 1010.0 |
| 20260509011001 | 7 | 49 | 0.0 | 0.0 | 0.00 | 0.08 | 0.05 | 76 | 1009.9 |
| 20260509010501 | 7 | 49 | 0.0 | 0.0 | 0.00 | 0.08 | 0.05 | 76 | 1009.8 |
| 20260509010002 | 7 | 49 | 0.0 | 0.0 | 0.00 | 0.08 | 0.05 | 75 | 1009.7 |
| 20260509005501 | 7 | 49 | 0.0 | 0.0 | 0.00 | 0.08 | 0.05 | 74 | 1009.7 |
| 20260509005001 | 7 | 49 | 0.0 | 0.0 | 0.00 | 0.08 | 0.05 | 73 | 1009.6 |
| 20260509004504 | 8 | 49 | 0.0 | 0.0 | 0.00 | 0.08 | 0.05 | 71 | 1009.6 |
| 20260509004001 | 8 | 49 | 0.0 | 0.0 | 0.00 | 0.08 | 0.05 | 71 | 1009.5 |
| 20260509003501 | 8 | 49 | 0.0 | 0.0 | 0.00 | 0.08 | 0.05 | 69 | 1009.6 |
| 20260509003001 | 8 | 49 | 0.0 | 0.0 | 0.00 | 0.08 | 0.05 | 69 | 1009.5 |
| 20260509002603 | 8 | 49 | 0.0 | 0.0 | 0.00 | 0.08 | 0.05 | 67 | 1009.5 |
| 20260509002100 | 9 | 49 | 0.0 | 0.0 | 0.00 | 0.08 | 0.05 | 67 | 1009.5 |
| 20260509001600 | 9 | 49 | 0.0 | 0.0 | 0.00 | 0.08 | 0.05 | 69 | 1009.5 |
| 20260509001100 | 10 | 49 | 0.0 | 0.0 | 0.00 | 0.08 | 0.05 | 65 | 1009.4 |
| 20260509000602 | 10 | 49 | 0.0 | 0.0 | 0.00 | 0.08 | 0.05 | 63 | 1009.4 |
| 20260509000122 | 10 | 49 | 0.0 | 0.0 | 0.00 | 0.08 | 0.05 | 63 | 1009.4 |
| 20260508235600 | 10 | 49 | 0.0 | 0.0 | 0.00 | 0.08 | 0.05 | 63 | 1009.4 |
| 20260508235100 | 10 | 49 | 0.0 | 0.0 | 0.00 | 0.08 | 0.05 | 62 | 1009.4 |
| 20260508234559 | 10 | 49 | 0.0 | 0.0 | 0.00 | 0.08 | 0.05 | 60 | 1009.3 |
| 20260508234102 | 10 | 49 | 0.0 | 0.0 | 0.00 | 0.08 | 0.05 | 63 | 1009.3 |
| 20260508233559 | 10 | 49 | 0.0 | 0.0 | 0.00 | 0.08 | 0.05 | 62 | 1009.3 |
| 20260508233119 | 10 | 49 | 0.0 | 3.2 | 0.00 | 0.08 | 0.05 | 62 | 1009.2 |
| 20260508232557 | 10 | 49 | 0.0 | 3.2 | 0.00 | 0.08 | 0.05 | 64 | 1009.2 |
| 20260508232057 | 10 | 49 | 1.6 | 3.2 | 0.00 | 0.08 | 0.05 | 63 | 1009.3 |
| 20260508231557 | 10 | 49 | 1.6 | 3.2 | 0.00 | 0.08 | 0.05 | 61 | 1009.2 |
| 20260508231057 | 10 | 49 | 0.0 | 4.8 | 0.00 | 0.08 | 0.05 | 63 | 1009.3 |
| 20260508230556 | 10 | 49 | 3.2 | 4.8 | 0.00 | 0.08 | 0.05 | 68 | 1009.3 |
| 20260508230059 | 10 | 49 | 0.0 | 4.8 | 0.00 | 0.08 | 0.05 | 63 | 1009.3 |
| 20260508225555 | 10 | 49 | 0.0 | 4.8 | 0.00 | 0.08 | 0.05 | 65 | 1009.3 |
| 20260508225055 | 10 | 49 | 3.2 | 4.8 | 0.00 | 0.08 | 0.05 | 69 | 1009.3 |
| 20260508224554 | 10 | 49 | 1.6 | 6.4 | 0.00 | 0.08 | 0.05 | 71 | 1009.4 |
| 20260508224053 | 10 | 49 | 1.6 | 6.4 | 0.00 | 0.08 | 0.05 | 73 | 1009.3 |
| 20260508223558 | 10 | 49 | 3.2 | 6.4 | 0.00 | 0.08 | 0.05 | 78 | 1009.3 |
| 20260508223053 | 10 | 49 | 3.2 | 6.4 | 0.00 | 0.08 | 0.05 | 78 | 1009.2 |
| 20260508222552 | 10 | 49 | 3.2 | 6.4 | 0.00 | 0.08 | 0.05 | 80 | 1009.3 |
| 20260508222051 | 10 | 49 | 4.8 | 8.0 | 0.00 | 0.08 | 0.05 | 79 | 1009.3 |
| 20260508221551 | 10 | 50 | 4.8 | 11.3 | 0.00 | 0.08 | 0.05 | 79 | 1009.4 |
| 20260508221050 | 10 | 46 | 8.0 | 11.3 | 0.00 | 0.08 | 0.05 | 77 | 1009.5 |
| 20260508220550 | 10 | 50 | 4.8 | 9.7 | 0.00 | 0.08 | 0.05 | 77 | 1009.6 |
| 20260508220050 | 10 | 50 | 4.8 | 8.0 | 0.00 | 0.08 | 0.05 | 74 | 1009.6 |
| 20260508215549 | 10 | 50 | 3.2 | 8.0 | 0.00 | 0.08 | 0.05 | 76 | 1009.7 |
| 20260508215049 | 10 | 50 | 3.2 | 8.0 | 0.00 | 0.08 | 0.05 | 75 | 1009.7 |
| 20260508214549 | 10 | 50 | 3.2 | 8.0 | 0.00 | 0.08 | 0.05 | 75 | 1009.6 |
| 20260508214048 | 10 | 46 | 4.8 | 8.0 | 0.00 | 0.08 | 0.05 | 71 | 1009.6 |
| 20260508213547 | 10 | 51 | 4.8 | 8.0 | 0.00 | 0.08 | 0.05 | 72 | 1009.6 |
| 20260508213046 | 10 | 43 | 6.4 | 8.0 | 0.00 | 0.08 | 0.05 | 71 | 1009.7 |
| 20260508212545 | 10 | 58 | 3.2 | 8.0 | 0.00 | 0.08 | 0.05 | 75 | 1009.6 |
| 20260508212044 | 10 | 47 | 4.8 | 11.3 | 0.00 | 0.08 | 0.05 | 74 | 1009.6 |
| 20260508211542 | 9 | 51 | 6.4 | 11.3 | 0.00 | 0.08 | 0.05 | 73 | 1009.6 |
| 20260508211044 | 10 | 40 | 6.4 | 9.7 | 0.00 | 0.08 | 0.05 | 72 | 1009.6 |
| 20260508210542 | 10 | 45 | 4.8 | 8.0 | 0.00 | 0.08 | 0.05 | 74 | 1009.7 |
| 20260508210041 | 9 | 46 | 4.8 | 8.0 | 0.00 | 0.08 | 0.05 | 74 | 1009.7 |
| 20260508205540 | 9 | 51 | 4.8 | 8.0 | 0.00 | 0.08 | 0.05 | 77 | 1009.8 |
| 20260508205039 | 9 | 63 | 4.8 | 8.0 | 0.00 | 0.08 | 0.05 | 77 | 1009.9 |
| 20260508204540 | 9 | 60 | 4.8 | 8.0 | 0.00 | 0.08 | 0.05 | 78 | 1010.1 |
| 20260508204037 | 8 | 60 | 4.8 | 8.0 | 0.00 | 0.08 | 0.05 | 79 | 1010.1 |
| 20260508203539 | 8 | 59 | 6.4 | 8.0 | 0.00 | 0.08 | 0.05 | 78 | 1010.1 |
| 20260508203039 | 8 | 61 | 4.8 | 11.3 | 0.00 | 0.08 | 0.05 | 79 | 1010.2 |
| 20260508202534 | 8 | 51 | 6.4 | 11.3 | 0.00 | 0.08 | 0.05 | 78 | 1010.3 |
| 20260508202036 | 8 | 55 | 4.8 | 11.3 | 0.00 | 0.08 | 0.05 | 77 | 1010.4 |
| 20260508201537 | 8 | 59 | 6.4 | 11.3 | 0.00 | 0.08 | 0.05 | 78 | 1010.4 |
| 20260508201034 | 8 | 44 | 4.8 | 9.7 | 0.00 | 0.08 | 0.05 | 76 | 1010.4 |
| 20260508200534 | 8 | 61 | 4.8 | 9.7 | 0.00 | 0.08 | 0.05 | 76 | 1010.4 |
| 20260508200033 | 8 | 60 | 4.8 | 9.7 | 0.00 | 0.08 | 0.05 | 78 | 1010.4 |
| 20260508195531 | 8 | 48 | 4.8 | 9.7 | 0.00 | 0.08 | 0.05 | 77 | 1010.5 |
| 20260508195031 | 8 | 61 | 4.8 | 8.0 | 0.00 | 0.08 | 0.05 | 77 | 1010.5 |
| 20260508194535 | 8 | 42 | 6.4 | 9.7 | 0.00 | 0.08 | 0.05 | 78 | 1010.6 |
| 20260508194029 | 8 | 48 | 4.8 | 9.7 | 0.00 | 0.08 | 0.05 | 78 | 1010.7 |
| 20260508193527 | 7 | 57 | 4.8 | 14.5 | 0.00 | 0.08 | 0.05 | 79 | 1010.7 |
| 20260508193028 | 7 | 43 | 4.8 | 14.5 | 0.00 | 0.08 | 0.05 | 80 | 1010.7 |
| 20260508192526 | 7 | 36 | 8.0 | 14.5 | 0.00 | 0.08 | 0.05 | 78 | 1010.9 |
| 20260508192025 | 7 | 42 | 8.0 | 11.3 | 0.00 | 0.08 | 0.05 | 79 | 1010.9 |
| 20260508191528 | 6 | 46 | 8.0 | 14.5 | 0.00 | 0.08 | 0.05 | 79 | 1011.0 |
| 20260508191025 | 6 | 42 | 8.0 | 14.5 | 0.00 | 0.08 | 0.05 | 79 | 1010.9 |
| 20260508190525 | 6 | 47 | 8.0 | 11.3 | 0.00 | 0.08 | 0.05 | 80 | 1010.9 |
| 20260508190025 | 6 | 44 | 9.7 | 11.3 | 0.00 | 0.08 | 0.05 | 80 | 1010.9 |
| 20260508185524 | 6 | 41 | 8.0 | 14.5 | 0.00 | 0.08 | 0.05 | 81 | 1010.8 |
| 20260508185029 | 6 | 42 | 8.0 | 14.5 | 0.00 | 0.08 | 0.05 | 81 | 1010.9 |
| 20260508184525 | 6 | 40 | 9.7 | 14.5 | 0.00 | 0.08 | 0.05 | 83 | 1010.9 |
| 20260508184024 | 6 | 28 | 9.7 | 14.5 | 0.00 | 0.08 | 0.05 | 83 | 1010.9 |
| 20260508183527 | 6 | 28 | 9.7 | 14.5 | 0.00 | 0.08 | 0.05 | 85 | 1010.9 |
| 20260508183026 | 6 | 46 | 8.0 | 16.1 | 0.00 | 0.08 | 0.05 | 85 | 1011.0 |
| 20260508182523 | 6 | 29 | 11.3 | 16.1 | 0.00 | 0.08 | 0.05 | 85 | 1011.1 |
| 20260508182023 | 6 | 22 | 9.7 | 14.5 | 0.00 | 0.08 | 0.05 | 85 | 1011.1 |
| 20260508181623 | 6 | 26 | 11.3 | 14.5 | 0.00 | 0.08 | 0.05 | 83 | 1011.1 |
| 20260508181023 | 6 | 19 | 11.3 | 14.5 | 0.00 | 0.08 | 0.05 | 82 | 1011.0 |
| 20260508180523 | 7 | 17 | 9.7 | 12.9 | 0.00 | 0.08 | 0.05 | 82 | 1011.2 |
| 20260508180022 | 7 | 5 | 9.7 | 12.9 | 0.00 | 0.08 | 0.05 | 83 | 1011.1 |
| 20260508175523 | 7 | 360 | 9.7 | 12.9 | 0.00 | 0.08 | 0.05 | 84 | 1011.1 |
| 20260508175023 | 7 | 15 | 8.0 | 12.9 | 0.00 | 0.08 | 0.05 | 86 | 1011.1 |
| 20260508174523 | 7 | 34 | 8.0 | 12.9 | 0.00 | 0.08 | 0.05 | 85 | 1011.1 |
| 20260508174022 | 7 | 26 | 8.0 | 12.9 | 0.00 | 0.08 | 0.05 | 84 | 1011.2 |
| 20260508173523 | 7 | 33 | 6.4 | 9.7 | 0.00 | 0.08 | 0.05 | 85 | 1011.1 |
| 20260508173023 | 6 | 17 | 6.4 | 9.7 | 0.00 | 0.08 | 0.05 | 84 | 1011.3 |
| 20260508172525 | 7 | 16 | 6.4 | 9.7 | 0.00 | 0.08 | 0.05 | 84 | 1011.3 |
| 20260508172021 | 7 | 21 | 6.4 | 9.7 | 0.00 | 0.08 | 0.05 | 84 | 1011.2 |
| 20260508171521 | 7 | 11 | 4.8 | 9.7 | 0.00 | 0.08 | 0.05 | 84 | 1011.3 |
| 20260508171020 | 7 | 5 | 6.4 | 12.9 | 0.00 | 0.08 | 0.05 | 85 | 1011.4 |
| 20260508170520 | 7 | 13 | 8.0 | 12.9 | 0.00 | 0.08 | 0.05 | 83 | 1011.4 |
| 20260508170021 | 7 | 10 | 6.4 | 11.3 | 0.00 | 0.08 | 0.05 | 83 | 1011.4 |
| 20260508165520 | 7 | 333 | 8.0 | 12.9 | 0.00 | 0.08 | 0.05 | 83 | 1011.5 |
| 20260508165020 | 7 | 325 | 8.0 | 12.9 | 0.00 | 0.08 | 0.05 | 83 | 1011.6 |
| 20260508164520 | 7 | 344 | 6.4 | 9.7 | 0.00 | 0.08 | 0.05 | 83 | 1011.7 |
| 20260508164020 | 6 | 321 | 6.4 | 9.7 | 0.00 | 0.08 | 0.05 | 84 | 1011.7 |
| 20260508163520 | 6 | 315 | 4.8 | 12.9 | 0.00 | 0.08 | 0.05 | 86 | 1011.7 |
| 20260508163120 | 6 | 315 | 6.4 | 12.9 | 0.00 | 0.08 | 0.05 | 86 | 1011.8 |
| 20260508162520 | 6 | 309 | 9.7 | 14.5 | 0.00 | 0.08 | 0.05 | 86 | 1011.8 |
| 20260508162022 | 6 | 315 | 11.3 | 14.5 | 0.00 | 0.08 | 0.05 | 86 | 1011.9 |
| 20260508161519 | 6 | 315 | 9.7 | 16.1 | 0.00 | 0.08 | 0.05 | 85 | 1011.9 |
| 20260508161019 | 6 | 309 | 11.3 | 16.1 | 0.00 | 0.08 | 0.05 | 85 | 1011.9 |
| 20260508160517 | 6 | 308 | 9.7 | 16.1 | 0.00 | 0.08 | 0.05 | 85 | 1012.0 |
| 20260508160018 | 7 | 336 | 11.3 | 16.1 | 0.00 | 0.08 | 0.05 | 84 | 1011.9 |
| 20260508155518 | 7 | 332 | 8.0 | 14.5 | 0.00 | 0.08 | 0.05 | 83 | 1011.8 |
| 20260508155017 | 7 | 333 | 8.0 | 16.1 | 0.00 | 0.08 | 0.05 | 82 | 1011.8 |
| 20260508154538 | 7 | 327 | 9.7 | 16.1 | 0.00 | 0.08 | 0.05 | 82 | 1011.7 |
| 20260508154016 | 7 | 331 | 11.3 | 17.7 | 0.00 | 0.08 | 0.05 | 77 | 1011.8 |
| 20260508153515 | 7 | 294 | 14.5 | 17.7 | 0.00 | 0.08 | 0.05 | 75 | 1011.7 |
| 20260508153015 | 7 | 313 | 11.3 | 14.5 | 0.00 | 0.08 | 0.05 | 75 | 1011.8 |
| 20260508152515 | 7 | 333 | 8.0 | 16.1 | 0.00 | 0.08 | 0.05 | 78 | 1011.7 |
| 20260508152012 | 6 | 329 | 11.3 | 16.1 | 0.00 | 0.08 | 0.05 | 78 | 1011.8 |
| 20260508151515 | 6 | 331 | 8.0 | 12.9 | 0.00 | 0.08 | 0.05 | 78 | 1011.8 |
| 20260508151016 | 6 | 329 | 6.4 | 12.9 | 0.00 | 0.08 | 0.05 | 79 | 1011.7 |
| 20260508150513 | 6 | 313 | 8.0 | 12.9 | 0.00 | 0.08 | 0.05 | 80 | 1011.7 |
| 20260508150012 | 6 | 302 | 8.0 | 12.9 | 0.00 | 0.08 | 0.05 | 78 | 1011.7 |
| 20260508145513 | 6 | 306 | 8.0 | 12.9 | 0.00 | 0.08 | 0.05 | 79 | 1011.6 |
| 20260508145010 | 6 | 264 | 6.4 | 16.1 | 0.00 | 0.08 | 0.05 | 79 | 1011.7 |
| 20260508144509 | 6 | 201 | 6.4 | 16.1 | 0.00 | 0.08 | 0.05 | 81 | 1011.6 |
| 20260508144013 | 6 | 284 | 8.0 | 12.9 | 0.00 | 0.08 | 0.05 | 82 | 1011.7 |
| 20260508143509 | 6 | 237 | 4.8 | 11.3 | 0.00 | 0.08 | 0.05 | 82 | 1011.5 |
| 20260508143009 | 6 | 219 | 8.0 | 12.9 | 0.00 | 0.08 | 0.05 | 83 | 1011.6 |
| 20260508142507 | 6 | 232 | 8.0 | 12.9 | 0.00 | 0.08 | 0.05 | 83 | 1011.7 |
| 20260508142008 | 6 | 179 | 4.8 | 11.3 | 0.00 | 0.08 | 0.05 | 83 | 1011.6 |
| 20260508141506 | 6 | 215 | 3.2 | 17.7 | 0.00 | 0.08 | 0.05 | 83 | 1011.5 |
| 20260508141005 | 6 | 215 | 4.8 | 17.7 | 0.00 | 0.08 | 0.05 | 82 | 1011.6 |
| 20260508140505 | 6 | 253 | 9.7 | 17.7 | 0.00 | 0.08 | 0.05 | 82 | 1011.5 |
| 20260508140005 | 6 | 249 | 6.4 | 14.5 | 0.00 | 0.08 | 0.05 | 82 | 1011.5 |
| 20260508135509 | 6 | 249 | 9.7 | 16.1 | 0.00 | 0.08 | 0.05 | 81 | 1011.5 |
| 20260508135007 | 6 | 213 | 6.4 | 16.1 | 0.00 | 0.08 | 0.05 | 82 | 1011.6 |
| 20260508134508 | 6 | 238 | 8.0 | 19.3 | 0.00 | 0.08 | 0.05 | 82 | 1011.5 |
| 20260508134004 | 6 | 273 | 11.3 | 19.3 | 0.00 | 0.08 | 0.05 | 83 | 1011.6 |
| 20260508133506 | 6 | 239 | 11.3 | 17.7 | 0.00 | 0.08 | 0.05 | 85 | 1011.6 |
| 20260508133006 | 6 | 221 | 11.3 | 17.7 | 0.00 | 0.08 | 0.05 | 87 | 1011.5 |
| 20260508132501 | 6 | 243 | 11.3 | 17.7 | 0.00 | 0.08 | 0.05 | 88 | 1011.5 |
| 20260508132100 | 6 | 232 | 8.0 | 16.1 | 0.00 | 0.08 | 0.05 | 89 | 1011.5 |
| 20260508131612 | 6 | 267 | 9.7 | 14.5 | 0.00 | 0.08 | 0.05 | 88 | 1011.4 |
| 20260508131100 | 6 | 222 | 6.4 | 11.3 | 0.00 | 0.08 | 0.05 | 89 | 1011.4 |
| 20260508130602 | 6 | 241 | 6.4 | 11.3 | 0.00 | 0.08 | 0.05 | 91 | 1011.5 |
| 20260508130100 | 6 | 248 | 4.8 | 14.5 | 0.00 | 0.08 | 0.05 | 91 | 1011.5 |
| 20260508125559 | 6 | 244 | 9.7 | 14.5 | 0.00 | 0.08 | 0.05 | 90 | 1011.6 |
| 20260508125058 | 6 | 249 | 6.4 | 14.5 | 0.00 | 0.08 | 0.05 | 92 | 1011.5 |
| 20260508124603 | 6 | 238 | 8.0 | 14.5 | 0.00 | 0.08 | 0.05 | 92 | 1011.5 |
| 20260508124058 | 6 | 246 | 4.8 | 8.0 | 0.00 | 0.08 | 0.05 | 92 | 1011.5 |
| 20260508123557 | 5 | 224 | 3.2 | 8.0 | 0.00 | 0.08 | 0.05 | 92 | 1011.4 |
| 20260508123058 | 5 | 218 | 3.2 | 8.0 | 0.00 | 0.08 | 0.05 | 92 | 1011.3 |
| 20260508122658 | 5 | 235 | 4.8 | 8.0 | 0.00 | 0.08 | 0.05 | 92 | 1011.3 |
| 20260508122056 | 5 | 234 | 1.6 | 6.4 | 0.00 | 0.08 | 0.05 | 93 | 1011.3 |
| 20260508121556 | 5 | 190 | 3.2 | 8.0 | 0.00 | 0.08 | 0.05 | 93 | 1011.3 |
| 20260508121055 | 5 | 211 | 4.8 | 8.0 | 0.00 | 0.08 | 0.05 | 93 | 1011.3 |
| 20260508120554 | 5 | 221 | 3.2 | 8.0 | 0.00 | 0.08 | 0.05 | 93 | 1011.2 |
| 20260508120053 | 5 | 240 | 3.2 | 6.4 | 0.00 | 0.08 | 0.05 | 94 | 1011.2 |
| 20260508115553 | 5 | 167 | 3.2 | 4.8 | 0.00 | 0.08 | 0.05 | 94 | 1011.1 |
| 20260508115055 | 5 | 209 | 1.6 | 4.8 | 0.00 | 0.08 | 0.05 | 94 | 1010.9 |
| 20260508114552 | 5 | 169 | 1.6 | 4.8 | 0.00 | 0.08 | 0.05 | 94 | 1010.8 |
| 20260508114052 | 5 | 169 | 1.6 | 4.8 | 0.00 | 0.08 | 0.05 | 94 | 1010.8 |
| 20260508113551 | 5 | 169 | 1.6 | 4.8 | 0.00 | 0.08 | 0.05 | 94 | 1010.8 |
| 20260508113051 | 5 | 169 | 1.6 | 4.8 | 0.00 | 0.08 | 0.05 | 94 | 1010.6 |